time_stamp(utc),avg(mph),gust(mph),direction(deg),12m_air_temp(f),sonic_u(cm/s),sonic_v(cm/s),sonic_w(cm/s),pressure,2m_air_temp(f),pyranometer(W/m^2)
"2017-12-21 00:02:42+00",6.8,6.8,,39.2,-289,58,11,1015.78,35.8,0
"2017-12-21 00:07:42+00",7.5,7.5,,39.3,-323,75,17,1015.76,35.7,0
"2017-12-21 00:12:42+00",8.2,8.2,,39.4,-355,82,15,1015.91,36,0
"2017-12-21 00:17:42+00",7.1,8.1,,39.1,-305,60,8,1015.97,35.9,0
"2017-12-21 00:22:42+00",5.7,5.7,,38.8,-249,16,4,1016.1,35.7,0
"2017-12-21 00:27:42+00",6.1,6.1,,38.7,-265,21,10,1016.15,35.6,0
"2017-12-21 00:32:42+00",7.6,7.6,,38.6,-335,44,19,1016.2,35.8,0
"2017-12-21 00:37:42+00",7.4,8.4,,38.5,-313,76,11,1016.35,36,0
"2017-12-21 00:42:42+00",7.2,8.2,,38.4,-302,75,11,1016.32,36.2,0
"2017-12-21 00:47:42+00",6.4,7.4,,38,-273,51,11,1016.32,36.2,0
"2017-12-21 00:52:42+00",6.4,7.4,,38,-273,28,8,1016.4,36.1,0
"2017-12-21 00:57:42+00",7.4,8.4,,38,-322,47,11,1016.43,35.9,0
"2017-12-21 01:02:42+00",8.0,9.0,,37.9,-347,66,18,1016.44,35.8,0
"2017-12-21 01:07:42+00",7.6,8.6,,37.6,-334,69,13,1016.49,35.7,0
"2017-12-21 01:12:42+00",8.1,9.1,,37.5,-348,83,14,1016.49,35.8,0
"2017-12-21 01:17:42+00",8.0,9.0,,37.5,-338,100,21,1016.52,36,0
"2017-12-21 01:22:42+00",8.0,9.0,,37.6,-348,74,16,1016.58,36.1,0
"2017-12-21 01:27:42+00",6.4,7.4,,37.7,-267,78,14,1016.66,36,0
"2017-12-21 01:32:42+00",6.8,7.8,,37.5,-281,118,17,1016.61,35.7,0
"2017-12-21 01:37:42+00",8.8,10.8,,37.7,-359,162,22,1016.53,35.5,0
"2017-12-21 01:42:42+00",8.2,9.2,,37.6,-329,147,24,1016.61,35.5,0
"2017-12-21 01:47:42+00",6.0,7.0,,37.5,-240,91,14,1016.73,35.7,0
"2017-12-21 01:52:42+00",6.3,7.3,,37.4,-245,136,19,1016.91,35.6,0
"2017-12-21 01:57:42+00",8.9,9.9,,37.4,-336,216,28,1016.85,35.5,0
"2017-12-21 02:02:42+00",11.0,13.0,,37.1,-385,288,21,1016.88,35.6,0
"2017-12-21 02:07:42+00",9.9,11.9,,36.7,-344,267,33,1016.84,35.7,0
"2017-12-21 02:12:42+00",7.9,8.9,,36.6,-254,228,23,1017.04,35.7,0
"2017-12-21 02:17:42+00",6.5,7.5,,36.5,-196,192,24,1017.05,35.5,0
"2017-12-21 02:22:42+00",8.1,8.1,,36.5,-232,263,19,1017.18,35.2,0
"2017-12-21 02:27:42+00",9.1,10.1,,36.6,-245,313,23,1017.12,34.7,0
"2017-12-21 02:32:42+00",9.2,10.2,,36.3,-237,319,23,1017.24,34.3,0
"2017-12-21 02:37:42+00",8.6,9.6,,36.1,-213,306,19,1017.17,33.9,0
"2017-12-21 02:42:42+00",6.3,6.3,,35.6,-145,228,11,1017.33,33.6,0
"2017-12-21 02:47:42+00",6.4,7.4,,35.3,-130,236,8,1017.35,33.3,0
"2017-12-21 02:52:42+00",7.0,8.0,,35,-103,278,5,1017.28,33,0
"2017-12-21 02:57:42+00",9.8,10.8,,34.9,-154,396,19,1017.3,32.6,0
"2017-12-21 03:02:42+00",8.9,9.9,,34.6,-129,355,15,1017.45,32.4,0
"2017-12-21 03:07:42+00",7.9,8.9,,34.4,-70,335,5,1017.46,32.2,0
"2017-12-21 03:12:42+00",8.7,9.7,,34.3,-56,375,11,1017.51,32,0
"2017-12-21 03:17:42+00",9.8,10.8,,34.6,-43,427,11,1017.6,31.8,0
"2017-12-21 03:22:42+00",10.6,12.6,,34.7,-29,470,11,1017.59,31.5,0
"2017-12-21 03:27:42+00",10.2,11.2,,34.7,6,435,9,1017.52,31.4,0
"2017-12-21 03:32:42+00",8.7,10.7,,34.5,40,371,1,1017.59,31.5,0
"2017-12-21 03:37:42+00",9.5,10.5,,34.7,84,394,3,1017.63,31.8,0
"2017-12-21 03:42:42+00",8.7,10.7,,35,107,351,5,1017.72,32.2,0
"2017-12-21 03:47:42+00",10.1,12.1,,35.1,82,418,4,1017.58,32.6,0
"2017-12-21 03:52:42+00",12.0,13.0,,35.1,80,513,8,1017.52,32.7,0
"2017-12-21 03:57:42+00",10.1,12.1,,34.9,78,419,7,1017.56,32.7,0
"2017-12-21 04:02:42+00",8.2,9.2,,34.8,116,313,-2,1017.56,32.8,0
"2017-12-21 04:07:42+00",9.9,10.9,,34.9,147,390,-11,1017.49,32.7,0
"2017-12-21 04:12:42+00",9.0,11.0,,34.8,117,355,-1,1017.48,32.8,0
"2017-12-21 04:17:42+00",8.9,9.9,,34.7,99,350,4,1017.44,32.7,0
"2017-12-21 04:22:42+00",8.4,9.4,,34.7,148,317,-4,1017.64,32.5,0
"2017-12-21 04:27:42+00",7.8,8.8,,34.6,177,278,7,1017.74,32.2,0
"2017-12-21 04:32:42+00",8.4,9.4,,34.6,161,313,0,1017.71,32,0
"2017-12-21 04:37:42+00",9.4,10.4,,34.7,124,358,-4,1017.61,31.9,0
"2017-12-21 04:42:42+00",9.0,9.0,,34.7,100,356,-4,1017.59,31.7,0
"2017-12-21 04:47:42+00",7.2,8.2,,34.4,147,262,3,1017.67,31.7,0
"2017-12-21 04:52:42+00",6.5,7.5,,34.2,96,240,5,1017.81,31.4,0
"2017-12-21 04:57:42+00",6.0,7.0,,34,37,249,4,1017.83,31.1,0
"2017-12-21 05:02:42+00",7.8,8.8,,33.7,-13,331,16,1017.75,30.7,0
"2017-12-21 05:07:42+00",7.7,7.7,,33.7,-32,326,15,1017.84,30.4,0
"2017-12-21 05:12:42+00",6.6,7.6,,33.7,-8,279,8,1017.87,30.1,0
"2017-12-21 05:17:42+00",5.4,6.4,,33.1,-6,227,8,1017.83,29.9,0
"2017-12-21 05:22:42+00",6.1,7.1,,33.1,-21,257,8,1017.86,29.9,0
"2017-12-21 05:27:42+00",7.2,9.2,,33,-30,305,5,1017.92,29.7,0
"2017-12-21 05:32:42+00",8.0,9.0,,33,-31,346,14,1018.07,29.5,0
"2017-12-21 05:37:42+00",6.2,6.2,,32.6,-88,247,15,1018,29.4,0
"2017-12-21 05:42:42+00",6.3,6.3,,32,-60,258,2,1018,29.3,0
"2017-12-21 05:47:42+00",6.4,7.4,,31.8,-81,259,10,1018,29.2,0
"2017-12-21 05:52:42+00",7.0,7.0,,31.9,-80,288,12,1017.95,29,0
"2017-12-21 05:57:42+00",6.9,7.9,,32.1,-125,268,17,1017.96,29,0
"2017-12-21 06:02:42+00",7.3,7.3,,32,-127,285,18,1018.06,28.9,0
"2017-12-21 06:07:42+00",7.0,7.0,,31.9,-98,283,11,1018.07,29,0
"2017-12-21 06:12:42+00",7.7,7.7,,31.6,-82,319,8,1018.04,29,0
"2017-12-21 06:17:42+00",7.1,7.1,,31.5,-82,290,8,1018.09,28.8,0
"2017-12-21 06:22:42+00",7.3,7.3,,31.5,-79,297,9,1018.09,28.7,0
"2017-12-21 06:27:42+00",7.8,8.8,,31.8,-55,329,9,1018.14,28.6,0
"2017-12-21 06:32:42+00",8.1,9.1,,31.9,-3,341,9,1018.03,28.3,0
"2017-12-21 06:37:42+00",8.1,8.1,,32,21,340,4,1018.06,28.3,0
"2017-12-21 06:42:42+00",10.1,11.1,,32.4,77,428,7,1018.15,28.1,0
"2017-12-21 06:47:42+00",11.3,11.3,,32.5,82,476,7,1018.21,28,0
"2017-12-21 06:52:42+00",11.2,11.2,,32.1,62,475,9,1018.24,28,0
"2017-12-21 06:57:42+00",10.3,11.3,,31.7,5,440,10,1018.37,27.9,0
"2017-12-21 07:02:42+00",10.0,11.0,,31.4,-16,431,12,1018.53,28,0
"2017-12-21 07:07:42+00",9.0,10.0,,31.2,-15,390,11,1018.56,28,0
"2017-12-21 07:12:42+00",7.5,8.5,,31,-28,321,11,1018.6,27.9,0
"2017-12-21 07:17:42+00",8.0,8.0,,30.7,-58,338,9,1018.57,27.8,0
"2017-12-21 07:22:42+00",8.3,9.3,,30.8,-84,351,9,1018.72,27.7,0
"2017-12-21 07:27:42+00",9.2,10.2,,30.9,-106,384,8,1018.82,27.7,0
"2017-12-21 07:32:42+00",7.9,8.9,,30.6,-109,314,13,1018.87,27.9,0
"2017-12-21 07:37:42+00",7.1,8.1,,30.4,-126,277,14,1019.02,28.1,0
"2017-12-21 07:42:42+00",7.9,8.9,,30.3,-145,306,16,1019.05,28.2,0
"2017-12-21 07:47:42+00",8.4,8.4,,30.3,-175,321,20,1019.11,28.2,0
"2017-12-21 07:52:42+00",10.0,11.0,,30.3,-224,377,24,1019.1,28.3,0
"2017-12-21 07:57:42+00",9.7,10.7,,30.4,-214,367,21,1019.17,28.3,0
"2017-12-21 08:02:42+00",9.5,11.5,,30.9,-215,359,21,1019.09,28.5,0
"2017-12-21 08:07:42+00",8.8,10.8,,30.9,-176,345,17,1019.02,28.8,0
"2017-12-21 08:12:42+00",8.8,9.8,,30.6,-177,340,18,1018.91,28.8,0
"2017-12-21 08:17:42+00",8.9,8.9,,30.1,-182,344,18,1018.94,28.6,0
"2017-12-21 08:22:42+00",8.7,9.7,,29.7,-182,332,19,1019.11,28.4,0
"2017-12-21 08:27:42+00",7.5,8.5,,29.3,-119,297,11,1018.82,28.2,0
"2017-12-21 08:32:42+00",6.1,6.1,,28.8,-57,254,3,1018.59,27.8,0
"2017-12-21 08:37:42+00",6.1,6.1,,28.6,-92,239,11,1018.61,27.4,0
"2017-12-21 08:42:42+00",7.4,8.4,,28.7,-130,283,12,1018.67,27.1,0
"2017-12-21 08:47:42+00",8.6,8.6,,28.9,-160,338,17,1018.9,26.8,0
"2017-12-21 08:52:42+00",7.9,8.9,,29,-175,291,17,1019.07,26.7,0
"2017-12-21 08:57:42+00",9.2,10.2,,29,-242,322,22,1019.33,26.8,0
"2017-12-21 09:02:42+00",10.2,11.2,,29.2,-231,384,21,1019.45,27,0
"2017-12-21 09:07:42+00",9.3,10.3,,29.2,-196,358,19,1019.33,27.2,0
"2017-12-21 09:12:42+00",9.5,10.5,,28.8,-209,357,19,1019.43,27.3,0
"2017-12-21 09:17:42+00",9.4,10.4,,28.4,-232,330,19,1019.56,27.3,0
"2017-12-21 09:22:42+00",10.5,11.5,,28.6,-281,365,20,1019.59,27.4,0
"2017-12-21 09:27:42+00",10.2,11.2,,28.8,-256,360,20,1019.65,27.5,0
"2017-12-21 09:32:42+00",10.4,12.4,,28.9,-243,386,22,1019.71,27.6,0
"2017-12-21 09:37:42+00",8.6,9.6,,28.7,-190,330,24,1019.59,27.6,0
"2017-12-21 09:42:42+00",8.5,9.5,,28.3,-123,342,13,1019.5,27.4,0
"2017-12-21 09:47:42+00",8.2,9.2,,27.8,-72,346,3,1019.38,27,0
"2017-12-21 09:52:42+00",9.5,10.5,,27.7,-83,407,11,1019.38,26.6,0
"2017-12-21 09:57:42+00",8.5,9.5,,27.7,-108,353,7,1019.56,26.2,0
"2017-12-21 10:02:42+00",9.4,10.4,,27.9,-153,379,21,1019.64,26.1,0
"2017-12-21 10:07:42+00",10.3,11.3,,28.1,-172,414,21,1019.8,26.3,0
"2017-12-21 10:12:42+00",10.5,11.5,,28.3,-159,430,17,1019.87,26.5,0
"2017-12-21 10:17:42+00",9.8,10.8,,28.1,-161,402,10,1019.89,26.6,0
"2017-12-21 10:22:42+00",8.6,9.6,,28.1,-173,338,16,1019.95,26.7,0
"2017-12-21 10:27:42+00",10.7,11.7,,28.3,-266,397,20,1020.2,26.9,0
"2017-12-21 10:32:42+00",9.1,10.1,,28.4,-193,338,11,1020.15,27.1,0
"2017-12-21 10:37:42+00",9.4,10.4,,28.3,-182,359,18,1020.03,27.1,0
"2017-12-21 10:42:42+00",8.9,9.9,,28.1,-148,358,18,1019.99,27,0
"2017-12-21 10:47:42+00",9.7,10.7,,27.8,-105,405,6,1020.09,26.7,0
"2017-12-21 10:52:42+00",9.2,10.2,,27.6,-116,389,9,1020.11,26.5,0
"2017-12-21 10:57:42+00",10.6,12.6,,27.6,-144,436,20,1020.4,26.3,0
"2017-12-21 11:02:42+00",10.4,12.4,,27.7,-133,440,14,1020.5,26.4,0
"2017-12-21 11:07:42+00",10.5,12.5,,27.7,-93,452,4,1020.27,26.5,0
"2017-12-21 11:12:42+00",10.0,12.0,,27.9,-81,425,10,1020.62,26.5,0
"2017-12-21 11:17:42+00",9.8,10.8,,28,-86,415,16,1020.56,26.6,0
"2017-12-21 11:22:42+00",10.5,12.5,,28.2,-102,440,9,1020.55,26.7,0
"2017-12-21 11:27:42+00",9.0,10.0,,28.3,-58,388,9,1020.55,26.7,0
"2017-12-21 11:32:42+00",8.0,9.0,,28.3,-15,342,11,1020.48,26.8,0
"2017-12-21 11:37:42+00",7.3,8.3,,28.5,-42,309,6,1020.39,26.8,0
"2017-12-21 11:42:42+00",7.9,8.9,,28.7,-52,334,5,1020.7,26.9,0
"2017-12-21 11:47:42+00",7.4,8.4,,28.8,-53,317,10,1020.58,27.1,0
"2017-12-21 11:52:42+00",7.9,8.9,,28.8,-96,328,11,1020.72,27.3,0
"2017-12-21 11:57:42+00",7.8,8.8,,28.9,-87,322,13,1020.75,27.6,0
"2017-12-21 12:02:42+00",8.7,9.7,,28.9,-96,360,8,1020.87,27.8,0
"2017-12-21 12:07:42+00",8.6,9.6,,29,-110,350,10,1021,28,0
"2017-12-21 12:12:42+00",8.9,9.9,,29.2,-135,365,8,1021.28,28.3,0
"2017-12-21 12:17:42+00",8.6,9.6,,29.4,-120,353,19,1021.41,28.5,0
"2017-12-21 12:22:42+00",8.0,9.0,,29.5,-113,329,13,1021.33,28.5,0
"2017-12-21 12:27:42+00",8.4,9.4,,29.6,-142,333,13,1021.44,28.5,0
"2017-12-21 12:32:42+00",7.6,8.6,,29.7,-172,269,3,1021.44,28.6,0
"2017-12-21 12:37:42+00",8.4,9.4,,29.6,-215,293,18,1021.54,28.8,0.2
"2017-12-21 12:42:42+00",9.0,10.0,,29.6,-229,320,20,1021.56,29.1,0
"2017-12-21 12:47:42+00",9.6,10.6,,29.5,-228,352,24,1021.8,29.2,0
"2017-12-21 12:52:42+00",8.9,10.9,,29.6,-197,327,21,1021.91,29.3,0
"2017-12-21 12:57:42+00",8.9,10.9,,29.8,-228,326,21,1022.07,29.5,0.1
"2017-12-21 13:02:42+00",10.5,11.5,,30,-278,365,20,1022.28,29.7,0
"2017-12-21 13:07:42+00",9.3,10.3,,30.1,-217,344,19,1022.41,29.9,0.1
"2017-12-21 13:12:42+00",8.4,9.4,,30.1,-196,311,18,1022.45,30,0.2
"2017-12-21 13:17:42+00",8.6,9.6,,30.1,-197,323,20,1022.45,30,0
"2017-12-21 13:22:42+00",9.5,10.5,,30.2,-230,345,20,1022.65,29.9,0
"2017-12-21 13:27:42+00",8.7,9.7,,30.2,-188,327,17,1022.83,30,34.2
"2017-12-21 13:32:42+00",9.8,10.8,,30.4,-214,369,16,1022.83,30.6,84.2
"2017-12-21 13:37:42+00",7.5,8.5,,30.8,-170,277,43,1022.9,31.5,90.9
"2017-12-21 13:42:42+00",7.6,10.6,,30.9,-163,292,13,1022.95,32.1,98.2
"2017-12-21 13:47:42+00",8.4,9.4,,31.4,-156,331,14,1022.82,32.8,104.2
"2017-12-21 13:52:42+00",9.8,10.8,,32.2,-181,382,35,1022.74,33.5,113.4
"2017-12-21 13:57:42+00",9.3,10.3,,32.6,-131,380,14,1022.78,34.1,119.5
"2017-12-21 14:02:42+00",8.9,9.9,,33,-105,379,5,1022.66,34.8,127.3
"2017-12-21 14:07:42+00",9.3,11.3,,33.2,-109,395,2,1022.5,35.4,138.1
"2017-12-21 14:12:42+00",9.5,12.5,,33.6,-105,405,14,1022.56,35.9,142.1
"2017-12-21 14:17:42+00",8.3,10.3,,33.9,-95,335,22,1022.43,36.4,151.4
"2017-12-21 14:22:42+00",9.2,11.2,,34,-115,388,8,1022.54,36.7,157.5
"2017-12-21 14:27:42+00",11.9,13.9,,34.3,-125,503,7,1022.67,36.8,163.5
"2017-12-21 14:32:42+00",9.7,11.7,,34.6,-107,406,26,1022.8,37,169.3
"2017-12-21 14:37:42+00",11.1,12.1,,34.4,-64,481,4,1022.84,37.2,177.3
"2017-12-21 14:42:42+00",11.5,12.5,,34.7,19,490,3,1022.76,37.4,182.8
"2017-12-21 14:47:42+00",9.9,10.9,,34.9,27,423,4,1022.94,37.5,187.5
"2017-12-21 14:52:42+00",10.9,11.9,,35.1,-5,464,1,1022.9,37.7,189.5
"2017-12-21 14:57:42+00",12.2,16.2,,35.6,22,532,44,1022.71,37.9,197.5
"2017-12-21 15:02:42+00",12.4,14.4,,35.5,119,516,-12,1022.79,37.8,205.3
"2017-12-21 15:07:42+00",9.6,13.6,,35.5,2,411,23,1022.79,37.9,202.1
"2017-12-21 15:12:42+00",9.1,11.1,,35.4,76,372,20,1022.74,37.8,213.3
"2017-12-21 15:17:42+00",11.0,14.0,,35.6,59,462,5,1022.76,38,220.6
"2017-12-21 15:22:42+00",9.8,11.8,,36,102,386,30,1022.73,38.2,222.3
"2017-12-21 15:27:42+00",13.3,15.3,,35.8,-95,576,12,1022.72,38.7,224
"2017-12-21 15:32:42+00",11.9,13.9,,35.8,35,511,5,1022.68,38.8,227.5
"2017-12-21 15:37:42+00",9.9,10.9,,36,99,402,4,1022.57,38.9,233.4
"2017-12-21 15:42:42+00",8.6,10.6,,36.2,147,308,6,1022.42,39.2,235.3
"2017-12-21 15:47:42+00",9.2,11.2,,36.3,6,393,5,1022.52,39.6,236.6
"2017-12-21 15:52:42+00",9.9,11.9,,36.5,-25,422,17,1022.56,39.8,238.7
"2017-12-21 15:57:42+00",8.6,9.6,,36.5,26,360,-8,1022.44,39.8,243.1
"2017-12-21 16:02:42+00",8.6,9.6,,36.5,-73,353,2,1022.45,40,243.1
"2017-12-21 16:07:42+00",8.4,9.4,,36.5,70,345,-9,1022.34,40,247.8
"2017-12-21 16:12:42+00",8.6,10.6,,36.7,-72,359,4,1022.3,40.3,249.2
"2017-12-21 16:17:42+00",7.7,9.7,,36.9,24,323,5,1022.35,40.7,250.4
"2017-12-21 16:22:42+00",8.6,10.6,,37.1,-104,360,13,1022.29,41,250.4
"2017-12-21 16:27:42+00",9.8,11.8,,37.3,-25,410,21,1022.31,41.1,252.4
"2017-12-21 16:32:42+00",8.7,10.7,,37.3,-77,365,-5,1022.36,41.3,253.1
"2017-12-21 16:37:42+00",9.1,10.1,,37.4,-245,313,22,1022.31,41.3,254.4
"2017-12-21 16:42:42+00",7.1,9.1,,37.6,-97,274,34,1022.43,40.9,254.7
"2017-12-21 16:47:42+00",6.6,7.6,,37.8,-207,195,-1,1022.43,41.2,256.6
"2017-12-21 16:52:42+00",8.5,10.5,,38,-157,331,21,1022.37,41,255.4
"2017-12-21 16:57:42+00",5.0,6.0,,38,-170,126,16,1022.14,41.1,254.7
"2017-12-21 17:02:42+00",4.0,6.0,,38,-56,143,2,1021.66,41.4,254.2
"2017-12-21 17:07:42+00",6.2,8.2,,38.3,50,252,-1,1021.74,41.6,254.8
"2017-12-21 17:12:42+00",2.2,3.2,,38.3,64,28,-29,1021.85,41.8,258.4
"2017-12-21 17:17:42+00",4.3,4.3,,38.6,-113,122,42,1021.98,42.3,253.4
"2017-12-21 17:22:42+00",9.0,10.0,,38.5,-325,225,11,1021.92,42.3,258.2
"2017-12-21 17:27:42+00",5.6,7.6,,38.4,-145,186,25,1021.83,42.1,263.1
"2017-12-21 17:32:42+00",4.2,6.2,,38.6,113,123,-6,1021.68,41.8,257.7
"2017-12-21 17:37:42+00",2.6,3.6,,38.7,-8,95,25,1021.44,42.3,252.9
"2017-12-21 17:42:42+00",2.1,3.1,,38.9,-32,62,-21,1021.45,42.6,249.7
"2017-12-21 17:47:42+00",2.1,3.1,,39.2,1,-70,3,1021.44,42.7,241.2
"2017-12-21 17:52:42+00",2.3,3.3,,39.3,82,-39,2,1021.35,42.9,243.3
"2017-12-21 17:57:42+00",4.8,5.8,,39.3,-184,56,41,1021.38,43.3,241.8
"2017-12-21 18:02:42+00",7.7,8.7,,39,-328,52,25,1021.26,43.1,248.2
"2017-12-21 18:07:42+00",5.5,7.5,,38.6,-216,-62,-44,1021.38,42.4,257.4
"2017-12-21 18:12:42+00",3.9,4.9,,38.9,-79,106,3,1021.46,42.3,271.5
"2017-12-21 18:17:42+00",8.5,11.5,,39.2,-315,-210,44,1021.41,42.4,261.5
"2017-12-21 18:22:42+00",6.5,7.5,,39.1,-258,-123,-9,1021.46,42.6,257.3
"2017-12-21 18:27:42+00",5.5,6.5,,39.4,-166,-174,26,1021.5,43,215
"2017-12-21 18:32:42+00",7.7,8.7,,39.2,-214,-254,-12,1021.45,42.9,222.6
"2017-12-21 18:37:42+00",6.2,7.2,,39.1,-269,-13,4,1021.48,42.5,123.6
"2017-12-21 18:42:42+00",3.5,5.5,,39.2,-117,-53,33,1021.64,42.5,216.7
"2017-12-21 18:47:42+00",4.0,5.0,,39.6,-110,-117,0,1021.64,42.6,220.1
"2017-12-21 18:52:42+00",2.7,4.7,,40.1,-75,-71,8,1021.49,42.1,162.1
"2017-12-21 18:57:42+00",4.6,5.6,,39.8,-171,-82,-16,1021.61,42.7,202.4
"2017-12-21 19:02:42+00",4.3,5.3,,39.8,-63,-163,9,1021.67,42.8,193.3
"2017-12-21 19:07:42+00",4.1,6.1,,40.1,-125,-120,9,1021.57,42.7,190.3
"2017-12-21 19:12:42+00",3.7,4.7,,40.1,-135,-87,1,1021.5,43.2,185.9
"2017-12-21 19:17:42+00",3.6,4.6,,40.1,-137,-44,-2,1021.68,43.6,174.3
"2017-12-21 19:22:42+00",5.6,6.6,,40.3,-103,-205,-10,1021.82,43,174.5
"2017-12-21 19:27:42+00",6.3,9.3,,40,-233,-133,-5,1021.72,42.9,168.9
"2017-12-21 19:32:42+00",2.5,3.5,,40.1,-96,-4,31,1021.77,43.3,156.1
"2017-12-21 19:37:42+00",5.6,6.6,,40.5,-181,-157,29,1021.86,43.2,136.8
"2017-12-21 19:42:42+00",4.3,6.3,,40.6,-126,-137,25,1021.98,43.2,136.6
"2017-12-21 19:47:42+00",5.6,6.6,,40.2,-153,-192,3,1021.77,42.5,49.5
"2017-12-21 19:52:42+00",5.1,6.1,,39.7,-131,-177,-1,1021.94,41.4,30.8
"2017-12-21 19:57:42+00",4.6,5.6,,40,-75,-164,-33,1022.05,41,123.7
"2017-12-21 20:02:42+00",4.5,5.5,,40.5,-119,-147,-2,1021.83,41.3,111.8
"2017-12-21 20:07:42+00",6.0,7.0,,40.3,91,-233,0,1021.92,40.9,103.2
"2017-12-21 20:12:42+00",6.5,7.5,,40.1,42,-256,-13,1021.73,40.8,94.7
"2017-12-21 20:17:42+00",7.3,8.3,,39.7,102,-298,-2,1021.77,40.4,86.9
"2017-12-21 20:22:42+00",6.6,8.6,,39.6,46,-265,15,1022.02,40.2,78.2
"2017-12-21 20:27:42+00",5.7,7.7,,39.6,44,-235,14,1022.13,40.1,63.6
"2017-12-21 20:32:42+00",8.4,9.4,,39.3,97,-345,-4,1021.95,39.8,59.4
"2017-12-21 20:37:42+00",5.9,6.9,,39.1,100,-219,7,1022.03,39.5,51.3
"2017-12-21 20:42:42+00",6.7,7.7,,39,187,-228,0,1022.06,39.5,41.1
"2017-12-21 20:47:42+00",4.7,5.7,,39,123,-143,-6,1022.09,39.4,34
"2017-12-21 20:52:42+00",4.5,5.5,,39,91,-163,7,1022.13,39.4,23.9
"2017-12-21 20:57:42+00",5.7,6.7,,39,173,-160,4,1022.32,39.2,16.9
"2017-12-21 21:02:42+00",4.1,5.1,,39.1,126,-103,-1,1022.43,39.2,9.5
"2017-12-21 21:07:42+00",4.1,5.1,,39,139,-93,3,1022.4,39.1,2.3
"2017-12-21 21:12:42+00",3.8,3.8,,38.9,89,-122,5,1022.52,39,0
"2017-12-21 21:17:42+00",3.8,3.8,,38.8,73,-137,-2,1022.6,38.7,0.2
"2017-12-21 21:22:42+00",4.2,5.2,,38.7,13,-171,-2,1022.7,38.3,0
"2017-12-21 21:27:42+00",4.3,4.3,,38.5,-1,-169,-1,1022.67,38.1,0
"2017-12-21 21:32:42+00",6.0,7.0,,38.4,18,-246,-6,1022.63,37.7,0
"2017-12-21 21:37:42+00",5.5,6.5,,38.5,15,-225,-4,1022.62,37.4,0
"2017-12-21 21:42:42+00",5.8,5.8,,38.4,52,-233,-5,1022.68,37.2,0
"2017-12-21 21:47:42+00",5.0,6.0,,38.2,42,-202,-6,1022.81,36.7,0
"2017-12-21 21:52:42+00",5.0,6.0,,37.9,4,-212,6,1022.97,36.2,0
"2017-12-21 21:57:42+00",3.9,4.9,,38.1,22,-155,-7,1022.89,36,0
"2017-12-21 22:02:42+00",3.3,4.3,,37.6,53,-120,-7,1023.09,35.9,0
"2017-12-21 22:07:42+00",4.0,4.0,,37.7,36,-157,-5,1023.15,35.7,0
"2017-12-21 22:12:42+00",2.9,2.9,,38,26,-111,-4,1023.24,35.6,0
"2017-12-21 22:17:42+00",2.6,2.6,,38.1,13,-103,-1,1023.48,36,0
"2017-12-21 22:22:42+00",3.2,3.2,,38.1,-12,-124,0,1023.48,36.3,0
"2017-12-21 22:27:42+00",2.6,3.6,,37.7,-68,-85,2,1023.49,36.3,0
"2017-12-21 22:32:42+00",3.4,3.4,,37.8,-72,-118,-2,1023.51,36.2,0
"2017-12-21 22:37:42+00",4.1,4.1,,37.9,-56,-154,-2,1023.61,36,0
"2017-12-21 22:42:42+00",3.3,4.3,,38,-50,-121,1,1023.51,35.8,0
"2017-12-21 22:47:42+00",2.0,2.0,,37.7,-80,8,0,1023.82,35.6,0
"2017-12-21 22:52:42+00",1.5,1.5,,37.6,-49,-29,-2,1023.8,35.3,0
"2017-12-21 22:57:42+00",3.4,3.4,,37.7,-100,-87,-1,1023.95,35.2,0
"2017-12-21 23:02:42+00",3.0,3.0,,37.9,-89,-75,2,1023.95,35.4,0
"2017-12-21 23:07:42+00",3.6,3.6,,38,-107,-94,-3,1023.95,35.5,0
"2017-12-21 23:12:42+00",3.7,4.7,,38,-120,-119,2,1024.04,35.6,0
"2017-12-21 23:17:42+00",2.8,3.8,,38,-84,-89,2,1024.08,35.8,0
"2017-12-21 23:22:42+00",3.7,4.7,,38,-106,-93,1,1024.22,35.9,0
"2017-12-21 23:27:42+00",3.3,4.3,,38.1,-111,-75,5,1024.25,35.8,0
"2017-12-21 23:32:42+00",2.3,2.3,,38.1,-91,-37,-4,1024.38,35.7,0
"2017-12-21 23:37:42+00",2.0,2.0,,38,-65,-42,3,1024.26,35.7,0
"2017-12-21 23:42:42+00",2.7,3.7,,37.8,32,86,0,1024.36,35.5,0
"2017-12-21 23:47:42+00",1.1,2.1,,37.6,-3,36,3,1024.33,35.5,0
"2017-12-21 23:52:42+00",1.3,2.3,,37.6,18,38,1,1024.49,35.6,0
"2017-12-21 23:57:42+00",2.7,2.7,,37.2,39,92,-2,1024.42,35.3,0
